Voltar ao catálogo

STARLINK-31379

AtivoComunicaçõesVLEO
NORAD 58984·PAYLOAD·🇺🇸 United States

Lançado Feb 15, 2024 de Vandenberg Space Force Base

Loading…

Próximas Passagens (próximas 24 horas)

TLE

AtualizadoSource: CelesTrak SupGP

Época: Sep 14, 2026, 21:13 UTC

1 58984C 24031V   26257.88451389 -.00055089  00000+0 -16274-2 0  2579
2 58984  53.1572 135.8902 0001341  84.9270  76.3470 15.34421404    12

Acompanhe STARLINK-31379 em tempo real com AllMySat

Download on the App Store